Tracking 18784 objects as of 18-August-2017
HD Live streaming from Space Station
objects crossing your sky now

N-1 R/B

Track N-1 R/B now!
10-day predictions


NORAD ID: 8710
Int'l Code: 1976-019B
Perigee: 996.8 km
Apogee: 1,017.8 km
Inclination: 69.7 °
Period: 105.1 minutes
Semi major axis: 7378 km
RCS: 1.547 m2 (large)
Launch date: February 29, 1976
Source: Japan (JPN)
Launch site: TANEGASHIMA SPACE CENTER (TNSTA)

Note: This is a ROCKET BODY
Your satellite tracking list
Your tracking list is empty





NASA's NSSDC Master Catalog

Two Line Element Set (TLE):
1  8710U 76019B   17229.61763894 -.00000038 +00000-0 +15196-4 0  9992
2  8710 069.6760 073.1857 0014219 212.8070 208.6525 13.69841393073319
Source of the keplerian elements: AFSPC